World > North America > United States > Michigan > Lansing   City of Lansing, MI

Lansing, MI Hourly Weather Updates

Feedback E-mail the Weather

Quick Clicks

Lansing, MI Weather Maps

°F °C°F °C
Lansing Weather Map
UTC Time: 5/22/2024, 15:11
Your Time:

Lansing, MI Regional Weather

Expires:202405221500;;663044
ASUS43 KDTX 221410
RWRMI 
MICHIGAN HOURLY REGIONAL WEATHER ROUNDUP
NATIONAL WEATHER SERVICE DETROIT/PONTIAC MI
1000 AM EDT WED MAY 22 2024

NOTE: "FAIR" INDICATES FEW OR NO CLOUDS BELOW 12,000 FEET WITH NO
SIGNIFICANT WEATHER AND/OR OBSTRUCTION TO VISIBILITY.


MIZ047>049-052>055-059>063-066>070-074>076-081>083-221500-
SOUTHEAST LOWER MICHIGAN
  
CITY           SKY/WX    TMP DP  RH WIND       PRES   REMARKS
ADRIAN         MOSUNNY   78  64  61 SW12G24   29.75S TC  26           
ALMA           PTSUNNY   73  58  59 SW18G26   29.66R TC  23           
ANN ARBOR      CLOUDY    76  64  66 SW16G31   29.73R TC  24           
BAD AXE        MOSUNNY   77  64  63 S17G23    29.65R TC  25           
CARO           PTSUNNY   78  65  65 S14       29.65S TC  25           
DETROIT CITY   CLOUDY    79  63  57 S17G25    29.73S TC  26           
DETROIT        PTSUNNY   80  64  58 SW22G32   29.74S TC  27           
FLINT          PTSUNNY   77  64  64 SW13      29.68S TC  25           
GROSSE ILE     CLOUDY    79  56  45 SW17G25   29.74S TC  26           
HILLSDALE      CLOUDY    76  59  56 SW12G21   29.75R TC  24           
HOWELL         CLOUDY    77  64  63 S12G17    29.71R TC  25           

CITY           SKY/WX    TMP DP  RH WIND       PRES   REMARKS
JACKSON        PTSUNNY   76  64  66 S18G28    29.72R TC  24           
LAMBERTVILLE   SUNNY     81  60  50 SW14G21   29.75S TC  27           
LANSING        CLOUDY    75  64  68 SW15G29   29.68R TC  24           
LAPEER         MOSUNNY   76  61  60 S9G24     29.70S TC  24           
MASON          CLOUDY    78  60  54 SW13G25   29.70R TC  25           
MONROE         CLOUDY    79  64  58 SW17G29   29.74S TC  26           
MT. CLEMENS    PTSUNNY   74  65  73 S14G21    29.70S TC  24           
PONTIAC        PTSUNNY   76  62  62 S14G29    29.72S TC  24           
PORT HOPE        N/A     78  64  61 SW9G20    29.62S TC  26           
PORT HURON     LGT RAIN  73  63  68 S14       29.73R TC  23           
TRI CITIES     PTSUNNY   78  62  57 S22G32    29.63S TC  26           
MIDLAND        MOSUNNY   78  61  56 SW23G32   29.62R TC  25           
TROY           CLOUDY    77  63  61 S12G18    29.75R TC  25           
SAGINAW HB     PTSUNNY   77  64  65 SW17G26   29.63R TC  25           
$$

SKY/WX - Weather  TMP - Temperature  DP - Dew Point  RH - Humidity
WIND - Wind Direction/Speed PRES - Barometric Pressure VSB - Visibility
WCI - Wind Chill Index E13G22 Wind - East Wind 13 mph/Gusts of 22 mph

Trending Headlines

Trending Entertainment Headlines

Lansing Radar Loop

Use the map search tool if you want to place a location marker on the radar map...

Lansing Quick Facts

National Two Day Weather Forecast


E-mail the Lansing Weather Forecast

Voice your opinion or tell us about page issues...